Zurück zum Katalog

FENGYUN 1C DEB

AktivPO
NORAD 31471·DEBRIS·🇨🇳 China

Gestartet May 10, 1999 von Taiyuan Satellite Launch Center

Loading…

Nächste Überflüge (nächste 24 Stunden)

TLE

AktuellSource: Space-Track

Epoche: Sep 13, 2026, 09:12 UTC

1 31471U 99025BVK 26256.38374210  .00001979  00000-0  90862-3 0  9994
2 31471  97.9572 116.4542 0143891 274.8427  83.6334 14.16913759678644

Verfolge FENGYUN 1C DEB in Echtzeit mit AllMySat

Download on the App Store